Liberia, Costa Rica

5:10 PM CST on June 22, 2017 (GMT -0600)
Daniel Oduber Quiros International

Weather History for MRLB - June, 2013

Change the Weather History Date:

Tuesday, June 11, 2013

  Actual Average Record
Temperature  
Mean Temperature 82 °F -  
Max Temperature 91 °F 86 °F 93 °F (1998)
Min Temperature 72 °F 75 °F 71 °F (2006)
Cooling Degree Days 16    
Growing Degree Days 32 (Base 50)    
Moisture  
Dew Point 72 °F    
Average Humidity 67    
Maximum Humidity 91    
Minimum Humidity 43    
Precipitation  
Precipitation 0.00 in - - ()
Sea Level Pressure  
Sea Level Pressure 29.85 in    
Wind  
Wind Speed 4 mph ()    
Max Wind Speed 10 mph    
Max Gust Speed -    
Visibility 8.0 miles    
Events      
Averages and records for this station are not official NWS values.
T = Trace of Precipitation, MM = Missing Value Source: Averaged Metar Reports

Daily Weather History Graph

Daily Weather History Graph

Search for Another Location

Airport or City:

Trip Planner

Search our weather history database for the weather conditions in past years. The results will help you decide how hot, cold, wet, or windy it might be!

Date:

Astronomy

Jun. 11, 2013 Rise Set
Actual Time 5:19 AM CST 6:04 PM CST
Civil Twilight 4:56 AM CST 6:27 PM CST
Nautical Twilight 4:29 AM CST 6:54 PM CST
Astronomical Twilight 4:02 AM CST 7:21 PM CST
Moon 7:42 AM CST (6/11) 8:30 PM CST (6/11)
Length of Visible Light 13h 30m
Length of Day
12h 44m
Waxing Crescent, 8% of the Moon is Illuminated
Jun 11
Waxing Crescent
Jun 16
First Quarter
Jun 23
Full
Jun 29
Last Quarter
Jul 8
New

Hourly Weather History & Observations

Time (CST) Temp. Heat Index Dew Point Humidity Pressure Visibility Wind Dir Wind Speed Gust Speed Precip Events Conditions
6:00 AM 72 °F - 70 °F 91% 29.88 in 12 mi ENE 3.5 mph - -   Overcast
6:00 AM 73.4 °F - 69.8 °F 88% 29.87 in 6.2 mi ENE 3.5 mph - N/A   Overcast
7:00 AM 77.0 °F - 71.6 °F 83% 29.88 in 6.2 mi NNE 3.5 mph - N/A   Mostly Cloudy
8:00 AM 77.0 °F - 73.4 °F 89% 29.89 in - South 2.3 mph - N/A   Clear
9:00 AM 80 °F - 74 °F 76% 29.92 in 12 mi Calm Calm - -   Overcast
9:00 AM 80.6 °F 85.4 °F 73.4 °F 79% 29.90 in - Calm Calm - N/A   Clear
10:00 AM 84.2 °F 89.6 °F 71.6 °F 66% 29.89 in 6.2 mi SW 2.3 mph - N/A   Mostly Cloudy
11:00 AM 89.6 °F 96.2 °F 71.6 °F 55% 29.88 in 6.2 mi NNE 5.8 mph - N/A   Mostly Cloudy
12:00 PM 89 °F - 71 °F 46% 29.87 in 12 mi East 10.4 mph - -   Overcast
12:00 PM 89.6 °F 96.2 °F 71.6 °F 55% 29.86 in 6.2 mi East 10.4 mph - N/A   Mostly Cloudy
1:00 PM 87.8 °F 95.6 °F 73.4 °F 62% 29.84 in 6.2 mi East 8.1 mph - N/A   Mostly Cloudy
2:00 PM 89.6 °F 98.2 °F 73.4 °F 59% 29.81 in 6.2 mi ESE 8.1 mph - N/A   Mostly Cloudy
3:00 PM 91 °F - 71 °F 43% 29.81 in 12 mi ESE 6.9 mph - -   Overcast
3:00 PM 91.4 °F 98.4 °F 71.6 °F 52% 29.80 in 6.2 mi ESE 6.9 mph - N/A   Mostly Cloudy
4:00 PM 87.8 °F 92.6 °F 69.8 °F 55% 29.80 in 6.2 mi East 5.8 mph - N/A   Mostly Cloudy
5:00 PM 86.0 °F 91.8 °F 71.6 °F 62% 29.80 in 6.2 mi ESE 5.8 mph - N/A   Mostly Cloudy
6:00 PM 83 °F - 74 °F 67% 29.84 in 12 mi NW 6.9 mph - -   Overcast
6:00 PM 84.2 °F 90.9 °F 73.4 °F 70% 29.83 in 6.2 mi NW 6.9 mph - N/A   Mostly Cloudy
7:00 PM 82.4 °F 88.2 °F 73.4 °F 74% 29.85 in - WNW 3.5 mph - N/A   Clear
8:00 PM 82.4 °F 88.2 °F 73.4 °F 74% 29.87 in - East 2.3 mph - N/A   Clear